Content
SEND FEEDBACK

Daily
Averages
Monthly
Summary
United States of America

MALDEN, MISSOURI


Home > North America > United States > Missouri
Elevation: 295 feet     Latitude: 36 36N     Longitude: 089 59W

WEATHER
 
SELECT A DAY
Number of Records: 212,591;   Date Range: 1/1/95 - 12/16/14
 
SHARE

PRINT THIS DATA

[ ← Previous Day ]
WEATHER ALMANAC - OCTOBER 12, 2013
[ Next Day → ]
[ °C ]   °F
Weather ElementAverageHighLow
Temperature64.4 °F73.4 °F (5:04 pm)57.9 °F (4:53 am)
Dewpoint60.8 °F64.9 °F (2:53 pm)55 °F (4:53 am)
Humidity88.3 %94 % (10:24 am)73 % (4:53 pm)
Barometer30.07 in30.16 in (11:34 pm)29.97 in (1:53 am)
Wind Speed0.8 mph6.9 mph (9:21 am)
Weather ElementAverage
Visibility3.8 mi
Wind DirectionNE (42.3 °)

Weather ElementTotal
Precipitation0.61 in
Cooling Degree Days0.7 (Base 65)
Growing Degree Days15.7 (Base 50)
Averaged from 48 records on October 12, 2013
WEATHER CONDITIONS BREAKOUT
WIND DIRECTION BREAKOUT
WEATHER BY HOUR - OCTOBER 12, 2013
[ °C ]   °F
Local TimeTemperatureDewpointHumidityBarometerVisibilityWind DirectionWind SpeedGust SpeedPrecipitationEventsConditions
1:53 AM60.1 °F55.9 °F86 %29.97 in7.0 miCalmMostly Cloudy
2:53 AM59.0 °F55.9 °F90 %29.97 in4.0 miCalmClear
3:53 AM59.0 °F55.9 °F90 %29.97 in6.0 miCalmClear
4:53 AM57.9 °F55.0 °F90 %29.98 in7.0 miCalmClear
5:53 AM60.1 °F57.0 °F90 %29.99 in5.0 miCalmOvercast
6:53 AM61.0 °F57.9 °F90 %29.99 in5.0 miCalmOvercast
7:53 AM63.0 °F60.1 °F90 %30.00 in4.0 miCalmOvercast
8:53 AM64.0 °F61.0 °F90 %30.01 in3.0 miCalmMostly Cloudy
9:21 AM64.4 °F60.8 °F88 %30.05 in4.0 miWest (270°)6.9 mph0.00 inRain-ThunderstormLight Thunderstorms and Rain
9:30 AM64.4 °F60.8 °F88 %30.06 in1.5 miWNW (300°)5.8 mph0.03 inRain-ThunderstormHeavy Rain
9:53 AM64.0 °F61.0 °F90 %30.06 in1.8 miCalm0.20 inRain-ThunderstormThunderstorms and Rain
10:24 AM64.4 °F62.6 °F94 %30.06 in1.5 miCalm0.11 inRainRain
10:39 AM64.4 °F62.6 °F94 %30.07 in2.5 miCalm0.13 inRainLight Rain
10:53 AM64.9 °F62.1 °F90 %30.07 in2.5 miCalm0.14 inRainLight Rain
11:05 AM64.4 °F62.6 °F94 %30.07 in3.0 miCalm0.00 inOvercast
11:19 AM66.2 °F62.6 °F88 %30.06 in2.5 miEast (90°)4.6 mph0.00 inMostly Cloudy
11:29 AM66.2 °F62.6 °F88 %30.07 in3.0 miCalm0.00 inMostly Cloudy
11:53 AM66.9 °F63.0 °F87 %30.06 in5.0 miCalm0.00 inOvercast
12:53 PM69.1 °F64.0 °F84 %30.05 in9.0 miCalmOvercast
1:53 PM71.1 °F64.0 °F78 %30.04 in10.0 miCalmOvercast
2:06 PM71.6 °F64.4 °F78 %30.05 in10.0 miCalmOvercast
2:53 PM72.0 °F64.9 °F78 %30.04 in10.0 miNorth (350°)4.6 mphOvercast
3:38 PM71.6 °F64.4 °F78 %30.04 in10.0 miNNW (330°)5.8 mphOvercast
3:53 PM72.0 °F64.0 °F76 %30.04 in10.0 miNW (320°)5.8 mphOvercast
4:53 PM73.0 °F64.0 °F73 %30.04 in10.0 miNNE (20°)3.5 mphMostly Cloudy
5:04 PM73.4 °F64.4 °F73 %30.05 in10.0 miNorth (350°)3.5 mphPartly Cloudy
5:53 PM72.0 °F64.0 °F76 %30.05 in10.0 miCalmClear
6:53 PM66.9 °F63.0 °F87 %30.06 in4.0 miCalmClear
7:01 PM64.4 °F62.6 °F94 %30.07 in1.0 miCalmClear
7:06 PM64.4 °F62.6 °F94 %30.07 in0.2 miCalmFogFog
7:17 PM64.4 °F62.6 °F94 %30.07 in1.0 miCalmMist
7:27 PM64.4 °F62.6 °F94 %30.08 in0.5 miCalmFogFog
7:31 PM64.4 °F62.6 °F94 %30.08 in0.2 miCalmFogFog
7:38 PM64.4 °F62.6 °F94 %30.08 in0.2 miCalmFogFog
7:53 PM63.0 °F61.0 °F93 %30.08 in0.2 miCalmFogFog
8:29 PM62.6 °F60.8 °F94 %30.10 in0.5 miCalmFogFog
8:36 PM60.8 °F57.2 °F88 %30.11 in0.2 miCalmFogFog
8:53 PM61.0 °F59.0 °F93 %30.11 in0.2 miCalmFogFog
9:53 PM60.1 °F57.9 °F93 %30.13 in0.2 miCalmFogFog
10:42 PM62.6 °F60.8 °F94 %30.15 in1.0 miCalmOvercast
10:53 PM62.1 °F60.1 °F93 %30.15 in1.0 miCalmMostly Cloudy
11:15 PM62.6 °F59.0 °F88 %30.15 in2.5 miCalmMostly Cloudy
11:22 PM60.8 °F59.0 °F94 %30.15 in3.0 miCalmMostly Cloudy
11:34 PM60.8 °F57.2 °F88 %30.16 in2.5 miCalmPartly Cloudy
11:38 PM60.8 °F57.2 °F88 %30.16 in3.0 miCalmScattered Clouds
11:46 PM60.8 °F57.2 °F88 %30.16 in1.5 miCalmPartly Cloudy
11:49 PM60.8 °F57.2 °F88 %30.16 in0.8 miCalmMist
11:53 PM60.1 °F57.9 °F93 %30.16 in0.5 miCalmFogFog
Hourly data recorded from KPOF, located miles away from Malden, Missouri







STORIES FROM OUR PARTNERS